ASA6842 KDAL-KSAN

Flight info

Callsign ASA6842
Flight time 2h 56m
Altitude 32000
Route KKITY5 CIKAN DCT EWM Q2 ITUCO DCT BAYBI DCT POTER DCT GBN J2 HOGGZ LUCKI1
Aircraft B738/M-SDE2E3FGHIRWXY/LB1

Departure

Time 2026-05-04 00:37
Airport Dallas Love Field (KDAL)

Arrival

Time 2026-05-04 03:33
Airport San Diego International Airport (KSAN)
Time Latitude Longitude Altitude Speed Heading
2026-05-04 00:14 32.84637 -96.85230 478 ft 0 kts 136°
2026-05-04 00:27 32.84640 -96.85234 486 ft 3 kts 136°
2026-05-04 00:27 32.84653 -96.85249 477 ft 3 kts 136°
2026-05-04 00:27 32.84666 -96.85264 487 ft 3 kts 136°
2026-05-04 00:28 32.84677 -96.85276 487 ft 0 kts 135°
2026-05-04 00:28 32.84689 -96.85284 478 ft 3 kts 187°
2026-05-04 00:28 32.84694 -96.85284 486 ft 0 kts 208°
2026-05-04 00:31 32.84693 -96.85285 486 ft 1 kts 210°
2026-05-04 00:31 32.84688 -96.85289 478 ft 2 kts 210°
2026-05-04 00:31 32.84655 -96.85316 484 ft 8 kts 217°
2026-05-04 00:32 32.84617 -96.85358 487 ft 7 kts 237°
2026-05-04 00:32 32.84614 -96.85418 487 ft 8 kts 275°
2026-05-04 00:32 32.84623 -96.85490 479 ft 10 kts 291°
2026-05-04 00:32 32.84671 -96.85552 485 ft 11 kts 314°
2026-05-04 00:33 32.84726 -96.85613 487 ft 11 kts 312°
2026-05-04 00:33 32.84833 -96.85743 486 ft 13 kts 315°
2026-05-04 00:33 32.84879 -96.85798 484 ft 15 kts 314°
2026-05-04 00:34 32.84958 -96.85892 483 ft 13 kts 319°
2026-05-04 00:34 32.85016 -96.85955 482 ft 13 kts 316°
2026-05-04 00:34 32.85112 -96.86065 478 ft 16 kts 315°
2026-05-04 00:34 32.85165 -96.86128 480 ft 16 kts 315°
2026-05-04 00:35 32.85218 -96.86205 477 ft 8 kts 279°
2026-05-04 00:35 32.85184 -96.86266 477 ft 10 kts 225°
2026-05-04 00:35 32.85141 -96.86315 477 ft 5 kts 216°
2026-05-04 00:35 32.85107 -96.86307 478 ft 5 kts 147°
2026-05-04 00:36 32.85076 -96.86273 480 ft 8 kts 136°
2026-05-04 00:36 32.84857 -96.86031 479 ft 83 kts 136°
2026-05-04 00:36 32.84269 -96.85352 487 ft 153 kts 137°
2026-05-04 00:36 32.83435 -96.84345 932 ft 181 kts 139°
2026-05-04 00:37 32.82516 -96.83207 1583 ft 200 kts 135°
2026-05-04 00:37 32.81488 -96.81901 1829 ft 230 kts 139°
2026-05-04 00:37 32.80328 -96.80489 2069 ft 246 kts 138°
2026-05-04 00:37 32.79113 -96.78994 2179 ft 256 kts 137°
2026-05-04 00:38 32.77883 -96.77469 2618 ft 256 kts 137°
2026-05-04 00:38 32.76635 -96.75920 3023 ft 259 kts 136°
2026-05-04 00:38 32.75386 -96.74389 3490 ft 261 kts 138°
2026-05-04 00:38 32.74077 -96.72874 4332 ft 260 kts 140°
2026-05-04 00:39 32.72757 -96.71410 5174 ft 260 kts 146°
2026-05-04 00:39 32.71126 -96.70545 5676 ft 255 kts 175°
2026-05-04 00:39 32.69368 -96.70672 6283 ft 259 kts 195°
2026-05-04 00:39 32.67676 -96.71431 7002 ft 262 kts 204°
2026-05-04 00:40 32.66017 -96.72368 7684 ft 266 kts 206°
2026-05-04 00:40 32.64332 -96.73326 8375 ft 272 kts 206°
2026-05-04 00:40 32.62738 -96.74566 9102 ft 274 kts 227°
2026-05-04 00:40 32.61747 -96.76464 9712 ft 278 kts 250°
2026-05-04 00:41 32.61428 -96.78723 10003 ft 283 kts 266°
2026-05-04 00:41 32.61406 -96.81119 10002 ft 291 kts 269°
2026-05-04 00:41 32.61434 -96.83512 9998 ft 289 kts 269°
2026-05-04 00:41 32.61469 -96.85874 10013 ft 284 kts 270°
2026-05-04 00:42 32.61498 -96.88208 10009 ft 281 kts 269°
2026-05-04 00:42 32.61521 -96.90530 10002 ft 281 kts 269°
2026-05-04 00:42 32.61539 -96.92815 10007 ft 281 kts 269°
2026-05-04 00:42 32.61553 -96.95137 10010 ft 282 kts 269°
2026-05-04 00:43 32.61565 -96.97487 10023 ft 283 kts 269°
2026-05-04 00:43 32.61575 -96.99828 10177 ft 285 kts 269°
2026-05-04 00:43 32.61583 -97.02163 10745 ft 288 kts 269°
2026-05-04 00:43 32.61591 -97.04540 11558 ft 285 kts 269°
2026-05-04 00:44 32.61598 -97.06906 12265 ft 287 kts 269°
2026-05-04 00:44 32.61604 -97.09286 12934 ft 290 kts 269°
2026-05-04 00:44 32.61610 -97.11658 13605 ft 293 kts 269°
2026-05-04 00:44 32.61615 -97.14101 14177 ft 297 kts 269°
2026-05-04 00:45 32.61620 -97.16577 14775 ft 300 kts 270°
2026-05-04 00:45 32.61624 -97.19035 15411 ft 302 kts 270°
2026-05-04 00:45 32.61628 -97.21540 16008 ft 305 kts 270°
2026-05-04 00:45 32.61632 -97.24064 16620 ft 307 kts 270°
2026-05-04 00:46 32.61636 -97.26614 17065 ft 317 kts 271°
2026-05-04 00:46 32.61639 -97.29324 17187 ft 335 kts 271°
2026-05-04 00:46 32.61641 -97.32158 17320 ft 352 kts 271°
2026-05-04 00:46 32.61795 -97.35119 17433 ft 368 kts 278°
2026-05-04 00:47 32.62233 -97.38170 17571 ft 382 kts 281°
2026-05-04 00:47 32.62771 -97.41319 17662 ft 396 kts 282°
2026-05-04 00:47 32.63326 -97.44531 17751 ft 408 kts 282°
2026-05-04 00:47 32.63885 -97.47881 17867 ft 418 kts 281°
2026-05-04 00:48 32.64434 -97.51306 18140 ft 423 kts 281°
2026-05-04 00:48 32.64970 -97.54749 18571 ft 424 kts 281°
2026-05-04 00:48 32.65493 -97.58168 19005 ft 423 kts 281°
2026-05-04 00:48 32.66016 -97.61610 19433 ft 423 kts 280°
2026-05-04 00:49 32.66542 -97.65074 19812 ft 425 kts 280°
2026-05-04 00:49 32.67067 -97.68531 20179 ft 426 kts 280°
2026-05-04 00:49 32.67592 -97.72003 20575 ft 427 kts 280°
2026-05-04 00:49 32.67812 -97.75517 20924 ft 430 kts 268°
2026-05-04 00:50 32.67535 -97.79018 21316 ft 430 kts 265°
2026-05-04 00:50 32.67201 -97.82555 21673 ft 432 kts 265°
2026-05-04 00:50 32.66871 -97.86114 22009 ft 433 kts 265°
2026-05-04 00:50 32.66557 -97.89691 22344 ft 435 kts 266°
2026-05-04 00:51 32.66260 -97.93273 22683 ft 436 kts 266°
2026-05-04 00:51 32.65976 -97.96818 23006 ft 437 kts 266°
2026-05-04 00:51 32.65692 -98.00422 23315 ft 438 kts 266°
2026-05-04 00:51 32.65408 -98.04028 23617 ft 439 kts 266°
2026-05-04 00:52 32.65122 -98.07647 23874 ft 440 kts 266°
2026-05-04 00:52 32.64837 -98.11230 24172 ft 440 kts 266°
2026-05-04 00:52 32.64548 -98.14842 24462 ft 439 kts 266°
2026-05-04 00:52 32.64257 -98.18467 24739 ft 439 kts 266°
2026-05-04 00:53 32.63965 -98.22090 24991 ft 440 kts 266°
2026-05-04 00:53 32.63673 -98.25710 25215 ft 441 kts 267°
2026-05-04 00:53 32.63382 -98.29291 25470 ft 440 kts 267°
2026-05-04 00:53 32.63087 -98.32919 25728 ft 440 kts 267°
2026-05-04 00:54 32.62792 -98.36537 25974 ft 439 kts 267°
2026-05-04 00:54 32.62496 -98.40136 26312 ft 436 kts 267°
2026-05-04 00:54 32.62203 -98.43695 26723 ft 431 kts 267°
2026-05-04 00:54 32.61916 -98.47174 27143 ft 427 kts 267°
2026-05-04 00:55 32.61627 -98.50666 27536 ft 424 kts 268°
2026-05-04 00:55 32.61339 -98.54141 27887 ft 421 kts 268°
2026-05-04 00:55 32.61052 -98.57590 28269 ft 418 kts 268°
2026-05-04 00:55 32.60765 -98.61016 28710 ft 414 kts 268°
2026-05-04 00:56 32.60482 -98.64400 29136 ft 410 kts 268°
2026-05-04 00:56 32.60199 -98.67759 29547 ft 407 kts 268°
2026-05-04 00:56 32.59918 -98.71087 29961 ft 404 kts 269°
2026-05-04 00:56 32.59642 -98.74351 30332 ft 400 kts 268°
2026-05-04 00:57 32.59364 -98.77631 30652 ft 398 kts 268°
2026-05-04 00:57 32.59086 -98.80903 30883 ft 398 kts 268°
2026-05-04 00:57 32.58808 -98.84172 31111 ft 398 kts 268°
2026-05-04 00:57 32.58529 -98.87439 31377 ft 397 kts 268°
2026-05-04 00:58 32.58248 -98.90703 31663 ft 396 kts 268°
2026-05-04 00:58 32.57973 -98.93903 31916 ft 395 kts 268°
2026-05-04 00:58 32.57693 -98.97144 32024 ft 393 kts 268°
2026-05-04 00:58 32.57415 -99.00318 32018 ft 377 kts 269°
2026-05-04 00:59 32.57150 -99.03317 32010 ft 362 kts 269°
2026-05-04 00:59 32.56639 -99.09181 32004 ft 356 kts 269°
2026-05-04 01:00 32.56130 -99.15036 32017 ft 355 kts 269°
2026-05-04 01:00 32.55620 -99.20835 32018 ft 355 kts 269°
2026-05-04 01:01 32.55103 -99.26675 32020 ft 355 kts 268°
2026-05-04 01:01 32.54588 -99.32462 32015 ft 355 kts 268°
2026-05-04 01:02 32.54171 -99.38310 32032 ft 355 kts 270°
2026-05-04 01:02 32.53844 -99.44125 32035 ft 355 kts 270°
2026-05-04 01:03 32.53508 -99.49986 32036 ft 356 kts 269°
2026-05-04 01:03 32.53158 -99.55854 32048 ft 359 kts 269°
2026-05-04 01:04 32.52795 -99.61803 32055 ft 362 kts 269°
2026-05-04 01:04 32.52428 -99.67745 32055 ft 365 kts 269°
2026-05-04 01:05 32.52053 -99.73773 32048 ft 367 kts 269°
2026-05-04 01:05 32.51675 -99.79789 32031 ft 368 kts 269°
2026-05-04 01:06 32.51292 -99.85854 32017 ft 368 kts 269°
2026-05-04 01:06 32.50906 -99.91913 32021 ft 368 kts 269°
2026-05-04 01:07 32.50520 -99.97925 32021 ft 367 kts 269°
2026-05-04 01:07 32.50129 -100.03962 32014 ft 366 kts 269°
2026-05-04 01:08 32.49738 -100.09980 32009 ft 366 kts 269°
2026-05-04 01:08 32.49345 -100.15966 32012 ft 370 kts 269°
2026-05-04 01:09 32.48939 -100.22133 31997 ft 380 kts 269°
2026-05-04 01:09 32.48518 -100.28468 31998 ft 390 kts 269°
2026-05-04 01:10 32.48089 -100.34907 32077 ft 398 kts 268°
2026-05-04 01:10 32.47655 -100.41503 32072 ft 402 kts 268°
2026-05-04 01:11 32.47217 -100.48107 32073 ft 402 kts 268°
2026-05-04 01:11 32.46779 -100.54673 32073 ft 402 kts 268°
2026-05-04 01:12 32.46330 -100.61275 32062 ft 401 kts 268°
2026-05-04 01:12 32.45886 -100.67811 32042 ft 399 kts 268°
2026-05-04 01:13 32.45439 -100.74368 32021 ft 398 kts 268°
2026-05-04 01:13 32.44990 -100.80903 32002 ft 397 kts 268°
2026-05-04 01:14 32.44541 -100.87377 32003 ft 396 kts 268°
2026-05-04 01:14 32.44085 -100.93888 32004 ft 396 kts 268°
2026-05-04 01:15 32.43626 -101.00399 32004 ft 396 kts 268°
2026-05-04 01:15 32.43168 -101.06852 31993 ft 396 kts 268°
2026-05-04 01:16 32.42704 -101.13351 31992 ft 395 kts 268°
2026-05-04 01:16 32.42236 -101.19842 31981 ft 395 kts 268°
2026-05-04 01:17 32.41765 -101.26327 31970 ft 395 kts 268°
2026-05-04 01:17 32.41294 -101.32777 31962 ft 396 kts 268°
2026-05-04 01:18 32.40816 -101.39268 31973 ft 396 kts 268°
2026-05-04 01:18 32.40335 -101.45760 31969 ft 396 kts 268°
2026-05-04 01:19 32.39932 -101.51162 31970 ft 396 kts 268°
2026-05-04 01:19 32.39444 -101.57665 31972 ft 397 kts 268°
2026-05-04 01:20 32.38952 -101.64175 31968 ft 397 kts 268°
2026-05-04 01:20 32.38456 -101.70687 31962 ft 397 kts 268°
2026-05-04 01:21 32.37959 -101.77168 31968 ft 397 kts 268°
2026-05-04 01:21 32.37456 -101.83692 31970 ft 398 kts 268°
2026-05-04 01:22 32.36948 -101.90224 31967 ft 398 kts 268°
2026-05-04 01:22 32.36441 -101.96708 31966 ft 398 kts 268°
2026-05-04 01:23 32.35927 -102.03239 31970 ft 398 kts 267°
2026-05-04 01:23 32.35409 -102.09771 31961 ft 398 kts 267°
2026-05-04 01:24 32.34888 -102.16306 31965 ft 399 kts 267°
2026-05-04 01:24 32.34366 -102.22808 31972 ft 399 kts 267°
2026-05-04 01:25 32.33836 -102.29363 31975 ft 400 kts 267°
2026-05-04 01:25 32.33303 -102.35910 31976 ft 400 kts 267°
2026-05-04 01:26 32.32770 -102.42420 31973 ft 400 kts 267°
2026-05-04 01:26 32.32230 -102.48977 31972 ft 400 kts 267°
2026-05-04 01:27 32.31690 -102.55491 31971 ft 399 kts 267°
2026-05-04 01:27 32.31143 -102.62035 31976 ft 399 kts 267°
2026-05-04 01:28 32.30594 -102.68572 31965 ft 399 kts 267°
2026-05-04 01:28 32.30042 -102.75105 31971 ft 399 kts 267°
2026-05-04 01:29 32.29490 -102.81595 31971 ft 398 kts 267°
2026-05-04 01:29 32.28933 -102.88107 31971 ft 397 kts 267°
2026-05-04 01:30 32.28377 -102.94572 31967 ft 397 kts 267°
2026-05-04 01:30 32.27815 -103.01064 31967 ft 397 kts 267°
2026-05-04 01:31 32.27249 -103.07563 31962 ft 396 kts 267°
2026-05-04 01:31 32.26683 -103.14017 31943 ft 397 kts 266°
2026-05-04 01:32 32.26110 -103.20517 31962 ft 396 kts 266°
2026-05-04 01:32 32.25536 -103.26988 31961 ft 396 kts 266°
2026-05-04 01:33 32.24963 -103.33414 31958 ft 396 kts 266°
2026-05-04 01:33 32.24380 -103.39912 31943 ft 396 kts 266°
2026-05-04 01:34 32.23800 -103.46337 31948 ft 396 kts 266°
2026-05-04 01:34 32.23212 -103.52819 31947 ft 395 kts 266°
2026-05-04 01:35 32.22622 -103.59275 31953 ft 395 kts 266°
2026-05-04 01:35 32.22031 -103.65713 31944 ft 395 kts 266°
2026-05-04 01:36 32.21434 -103.72181 31936 ft 396 kts 266°
2026-05-04 01:36 32.20834 -103.78646 31936 ft 396 kts 266°
2026-05-04 01:37 32.20234 -103.85076 31945 ft 396 kts 266°
2026-05-04 01:37 32.19626 -103.91545 31926 ft 396 kts 266°
2026-05-04 01:38 32.19018 -103.97987 31935 ft 397 kts 266°
2026-05-04 01:38 32.18402 -104.04479 31938 ft 398 kts 266°
2026-05-04 01:39 32.17785 -104.10948 31984 ft 398 kts 266°
2026-05-04 01:39 32.17160 -104.17460 31995 ft 399 kts 266°
2026-05-04 01:40 32.16530 -104.23989 32018 ft 398 kts 266°
2026-05-04 01:40 32.15903 -104.30444 31998 ft 396 kts 266°
2026-05-04 01:41 32.15271 -104.36915 31979 ft 395 kts 266°
2026-05-04 01:41 32.14646 -104.43295 31975 ft 393 kts 266°
2026-05-04 01:42 32.14014 -104.49707 31964 ft 392 kts 266°
2026-05-04 01:42 32.13380 -104.56107 31947 ft 391 kts 266°
2026-05-04 01:43 32.12743 -104.62455 31941 ft 393 kts 266°
2026-05-04 01:43 32.12103 -104.68885 31940 ft 394 kts 266°
2026-05-04 01:44 32.11457 -104.75317 31935 ft 395 kts 266°
2026-05-04 01:44 32.10807 -104.81746 31938 ft 396 kts 266°
2026-05-04 01:45 32.10150 -104.88195 31935 ft 395 kts 266°
2026-05-04 01:45 32.09163 -104.97840 31919 ft 395 kts 266°
2026-05-04 01:46 32.08504 -105.04246 31915 ft 395 kts 266°
2026-05-04 01:46 32.07838 -105.10685 31912 ft 394 kts 265°
2026-05-04 01:47 32.07169 -105.17108 31916 ft 394 kts 265°
2026-05-04 01:47 32.06499 -105.23518 31914 ft 394 kts 265°
2026-05-04 01:48 32.05831 -105.29882 31890 ft 393 kts 265°
2026-05-04 01:48 32.05155 -105.36281 31905 ft 393 kts 265°
2026-05-04 01:49 32.04476 -105.42682 31909 ft 393 kts 265°
2026-05-04 01:49 32.03795 -105.49071 31916 ft 393 kts 265°
2026-05-04 01:50 32.03115 -105.55425 31915 ft 393 kts 265°
2026-05-04 01:50 32.02427 -105.61824 31912 ft 393 kts 265°
2026-05-04 01:51 32.01737 -105.68212 31922 ft 392 kts 265°
2026-05-04 01:51 32.01042 -105.74587 31929 ft 391 kts 265°
2026-05-04 01:52 32.00351 -105.80911 31921 ft 390 kts 265°
2026-05-04 01:52 31.99654 -105.87264 31921 ft 390 kts 265°
2026-05-04 01:53 31.98961 -105.93560 31916 ft 389 kts 265°
2026-05-04 01:53 31.98261 -105.99878 31920 ft 389 kts 265°
2026-05-04 01:54 31.97555 -106.06223 31944 ft 389 kts 265°
2026-05-04 01:54 31.96848 -106.12553 31952 ft 390 kts 265°
2026-05-04 01:55 31.96143 -106.18840 31975 ft 390 kts 265°
2026-05-04 01:55 31.95489 -106.25179 31988 ft 389 kts 269°
2026-05-04 01:56 31.95814 -106.31513 32004 ft 388 kts 279°
2026-05-04 01:56 31.96794 -106.37736 31993 ft 388 kts 279°
2026-05-04 01:57 31.97771 -106.43987 31997 ft 387 kts 279°
2026-05-04 01:57 31.98735 -106.50246 31987 ft 388 kts 280°
2026-05-04 01:58 31.99688 -106.56489 32004 ft 389 kts 279°
2026-05-04 01:58 32.00639 -106.62750 32007 ft 389 kts 279°
2026-05-04 01:59 32.01588 -106.69025 32015 ft 388 kts 279°
2026-05-04 01:59 32.02526 -106.75253 31988 ft 386 kts 279°
2026-05-04 02:00 32.03461 -106.81498 32001 ft 386 kts 279°
2026-05-04 02:00 32.04392 -106.87703 31972 ft 385 kts 279°
2026-05-04 02:01 32.05323 -106.93937 31974 ft 385 kts 279°
2026-05-04 02:01 32.06245 -107.00142 31974 ft 385 kts 279°
2026-05-04 02:02 32.07168 -107.06370 31952 ft 384 kts 280°
2026-05-04 02:02 32.08085 -107.12575 31937 ft 384 kts 279°
2026-05-04 02:03 32.08992 -107.18737 31940 ft 383 kts 279°
2026-05-04 02:03 32.09901 -107.24941 31916 ft 383 kts 279°
2026-05-04 02:04 32.10653 -107.30082 31899 ft 383 kts 279°
2026-05-04 02:04 32.11558 -107.36294 31904 ft 383 kts 279°
2026-05-04 02:05 32.12454 -107.42463 31925 ft 383 kts 279°
2026-05-04 02:05 32.13351 -107.48671 31962 ft 383 kts 279°
2026-05-04 02:06 32.14244 -107.54865 31994 ft 383 kts 279°
2026-05-04 02:06 32.15129 -107.61030 32008 ft 383 kts 279°
2026-05-04 02:07 32.16016 -107.67230 32035 ft 383 kts 279°
2026-05-04 02:07 32.16901 -107.73439 32042 ft 383 kts 279°
2026-05-04 02:08 32.17783 -107.79648 32039 ft 383 kts 279°
2026-05-04 02:08 32.18223 -107.82750 31886 ft 383 kts 279°
2026-05-04 02:08 32.18656 -107.85817 31896 ft 382 kts 279°
2026-05-04 02:09 32.19532 -107.92024 31883 ft 382 kts 279°
2026-05-04 02:09 32.20403 -107.98224 31894 ft 382 kts 279°
2026-05-04 02:10 32.21267 -108.04394 31891 ft 382 kts 279°
2026-05-04 02:10 32.22125 -108.10551 31889 ft 382 kts 279°
2026-05-04 02:11 32.22988 -108.16756 31883 ft 382 kts 279°
2026-05-04 02:11 32.23846 -108.22955 31888 ft 381 kts 279°
2026-05-04 02:12 32.24695 -108.29108 31889 ft 381 kts 279°
2026-05-04 02:12 32.25545 -108.35295 31926 ft 381 kts 279°
2026-05-04 02:13 32.26394 -108.41492 31955 ft 381 kts 279°
2026-05-04 02:13 32.27233 -108.47644 31984 ft 381 kts 279°
2026-05-04 02:14 32.28074 -108.53831 32014 ft 380 kts 279°
2026-05-04 02:14 32.28909 -108.60000 32059 ft 380 kts 279°
2026-05-04 02:15 32.29736 -108.66131 32049 ft 380 kts 279°
2026-05-04 02:15 32.30566 -108.72308 32046 ft 379 kts 279°
2026-05-04 02:16 32.30979 -108.75392 31863 ft 379 kts 279°
2026-05-04 02:16 32.31387 -108.78443 31864 ft 379 kts 279°
2026-05-04 02:16 32.32208 -108.84603 31863 ft 379 kts 279°
2026-05-04 02:17 32.33028 -108.90770 31855 ft 379 kts 279°
2026-05-04 02:17 32.33842 -108.96924 31850 ft 378 kts 279°
2026-05-04 02:18 32.34648 -109.03039 31843 ft 378 kts 279°
2026-05-04 02:18 32.35455 -109.09187 31852 ft 377 kts 278°
2026-05-04 02:19 32.36258 -109.15345 31838 ft 378 kts 278°
2026-05-04 02:19 32.37056 -109.21466 31850 ft 378 kts 278°
2026-05-04 02:20 32.37456 -109.24541 32172 ft 376 kts 278°
2026-05-04 02:20 32.37848 -109.27565 32823 ft 366 kts 279°
2026-05-04 02:20 32.38228 -109.30500 33517 ft 356 kts 279°
2026-05-04 02:20 32.38596 -109.33347 33806 ft 353 kts 279°
2026-05-04 02:21 32.39347 -109.39177 33823 ft 361 kts 279°
2026-05-04 02:21 32.40105 -109.45079 33823 ft 363 kts 279°
2026-05-04 02:22 32.40858 -109.50969 33843 ft 364 kts 279°
2026-05-04 02:22 32.41613 -109.56902 33830 ft 364 kts 279°
2026-05-04 02:23 32.42362 -109.62802 33824 ft 362 kts 279°
2026-05-04 02:23 32.43108 -109.68706 33833 ft 361 kts 279°
2026-05-04 02:24 32.43842 -109.74536 33833 ft 359 kts 279°
2026-05-04 02:24 32.44890 -109.80318 33853 ft 359 kts 284°
2026-05-04 02:25 32.46327 -109.85987 33856 ft 359 kts 284°
2026-05-04 02:25 32.47750 -109.91607 33852 ft 359 kts 284°
2026-05-04 02:26 32.49171 -109.97275 33875 ft 358 kts 284°
2026-05-04 02:26 32.50586 -110.02947 33878 ft 358 kts 284°
2026-05-04 02:27 32.51994 -110.08613 33891 ft 358 kts 284°
2026-05-04 02:27 32.53391 -110.14246 33892 ft 358 kts 283°
2026-05-04 02:28 32.54792 -110.19919 33922 ft 358 kts 284°
2026-05-04 02:28 32.56181 -110.25545 33903 ft 357 kts 284°
2026-05-04 02:29 32.57572 -110.31191 33894 ft 358 kts 284°
2026-05-04 02:29 32.58967 -110.36872 33909 ft 359 kts 284°
2026-05-04 02:30 32.60368 -110.42565 33917 ft 360 kts 284°
2026-05-04 02:30 32.61764 -110.48276 33883 ft 360 kts 283°
2026-05-04 02:31 32.63147 -110.53943 33889 ft 359 kts 283°
2026-05-04 02:31 32.64534 -110.59637 33888 ft 359 kts 283°
2026-05-04 02:32 32.65921 -110.65343 33891 ft 358 kts 283°
2026-05-04 02:32 32.67294 -110.71001 33871 ft 357 kts 283°
2026-05-04 02:33 32.68668 -110.76678 33876 ft 357 kts 283°
2026-05-04 02:33 32.70034 -110.82333 33898 ft 357 kts 283°
2026-05-04 02:34 32.71392 -110.87969 33874 ft 356 kts 283°
2026-05-04 02:34 32.72749 -110.93616 33872 ft 355 kts 282°
2026-05-04 02:35 32.74108 -110.99278 33854 ft 355 kts 283°
2026-05-04 02:35 32.75454 -111.04895 33861 ft 354 kts 282°
2026-05-04 02:36 32.76736 -111.10552 33862 ft 353 kts 279°
2026-05-04 02:36 32.77545 -111.16251 33866 ft 352 kts 277°
2026-05-04 02:37 32.78327 -111.22018 33860 ft 352 kts 277°
2026-05-04 02:37 32.79109 -111.27747 33861 ft 352 kts 277°
2026-05-04 02:38 32.79900 -111.33515 33866 ft 352 kts 277°
2026-05-04 02:38 32.80685 -111.39244 33860 ft 352 kts 277°
2026-05-04 02:39 32.81475 -111.45023 33849 ft 353 kts 277°
2026-05-04 02:39 32.82256 -111.50754 33850 ft 353 kts 277°
2026-05-04 02:40 32.83041 -111.56543 33859 ft 353 kts 277°
2026-05-04 02:40 32.83818 -111.62283 33853 ft 353 kts 277°
2026-05-04 02:41 32.84595 -111.68052 33856 ft 352 kts 277°
2026-05-04 02:41 32.85368 -111.73807 33861 ft 352 kts 277°
2026-05-04 02:42 32.86133 -111.79525 33857 ft 352 kts 277°
2026-05-04 02:42 32.86902 -111.85287 33853 ft 352 kts 276°
2026-05-04 02:43 32.87666 -111.91043 33853 ft 352 kts 276°
2026-05-04 02:43 32.88423 -111.96761 33847 ft 352 kts 276°
2026-05-04 02:44 32.89183 -112.02524 33840 ft 352 kts 276°
2026-05-04 02:44 32.89942 -112.08304 33836 ft 353 kts 276°
2026-05-04 02:45 32.90695 -112.14053 33821 ft 353 kts 276°
2026-05-04 02:45 32.91377 -112.19844 33817 ft 352 kts 274°
2026-05-04 02:46 32.91885 -112.25629 33814 ft 353 kts 274°
2026-05-04 02:46 32.92390 -112.31431 33820 ft 354 kts 274°
2026-05-04 02:47 32.92912 -112.37278 33825 ft 354 kts 274°
2026-05-04 02:47 32.93436 -112.43083 33805 ft 354 kts 274°
2026-05-04 02:48 32.93959 -112.48919 33797 ft 353 kts 273°
2026-05-04 02:48 32.94476 -112.54712 33824 ft 353 kts 273°
2026-05-04 02:49 32.94996 -112.60546 33829 ft 353 kts 273°
2026-05-04 02:49 32.95420 -112.66340 33831 ft 352 kts 269°
2026-05-04 02:50 32.95003 -112.72134 33837 ft 351 kts 262°
2026-05-04 02:50 32.94222 -112.77887 33831 ft 351 kts 262°
2026-05-04 02:51 32.93442 -112.83614 33824 ft 351 kts 261°
2026-05-04 02:51 32.92668 -112.89324 33824 ft 351 kts 261°
2026-05-04 02:52 32.92022 -112.94103 33813 ft 351 kts 261°
2026-05-04 02:52 32.91246 -112.99835 33804 ft 352 kts 261°
2026-05-04 02:53 32.90462 -113.05609 33796 ft 352 kts 261°
2026-05-04 02:53 32.89676 -113.11375 33782 ft 353 kts 261°
2026-05-04 02:54 32.88891 -113.17120 33776 ft 353 kts 261°
2026-05-04 02:54 32.88096 -113.22912 33772 ft 354 kts 261°
2026-05-04 02:55 32.86904 -113.31558 33761 ft 354 kts 261°
2026-05-04 02:56 32.86103 -113.37348 33747 ft 354 kts 261°
2026-05-04 02:56 32.85305 -113.43093 33735 ft 354 kts 260°
2026-05-04 02:57 32.84498 -113.48881 33738 ft 354 kts 261°
2026-05-04 02:57 32.83694 -113.54627 33745 ft 354 kts 261°
2026-05-04 02:58 32.82882 -113.60414 33775 ft 354 kts 261°
2026-05-04 02:58 32.82066 -113.66213 33768 ft 355 kts 260°
2026-05-04 02:59 32.81246 -113.71984 33764 ft 355 kts 260°
2026-05-04 02:59 32.80414 -113.77768 33765 ft 355 kts 260°
2026-05-04 03:00 32.79576 -113.83567 33767 ft 355 kts 260°
2026-05-04 03:00 32.78743 -113.89331 33762 ft 355 kts 260°
2026-05-04 03:01 32.77901 -113.95136 33757 ft 355 kts 260°
2026-05-04 03:01 32.77535 -114.00976 33759 ft 357 kts 267°
2026-05-04 03:02 32.77501 -114.06890 33723 ft 357 kts 268°
2026-05-04 03:02 32.77690 -114.12800 33736 ft 359 kts 269°
2026-05-04 03:03 32.77958 -114.18725 33745 ft 361 kts 269°
2026-05-04 03:03 32.78208 -114.24735 33751 ft 364 kts 269°
2026-05-04 03:04 32.78443 -114.30747 33816 ft 367 kts 269°
2026-05-04 03:04 32.78678 -114.36831 33777 ft 367 kts 269°
2026-05-04 03:05 32.79821 -114.42753 33798 ft 374 kts 281°
2026-05-04 03:05 32.81483 -114.48613 33809 ft 373 kts 281°
2026-05-04 03:06 32.83114 -114.54485 33807 ft 373 kts 281°
2026-05-04 03:06 32.84724 -114.60346 33796 ft 373 kts 281°
2026-05-04 03:07 32.86320 -114.66170 33808 ft 372 kts 281°
2026-05-04 03:07 32.87793 -114.72065 33794 ft 366 kts 273°
2026-05-04 03:08 32.87875 -114.78050 33792 ft 361 kts 265°
2026-05-04 03:08 32.87709 -114.83986 33793 ft 361 kts 265°
2026-05-04 03:09 32.87557 -114.89974 33788 ft 361 kts 265°
2026-05-04 03:09 32.87415 -114.95956 33784 ft 362 kts 265°
2026-05-04 03:10 32.87277 -115.01903 33799 ft 362 kts 265°
2026-05-04 03:10 32.87136 -115.07888 33794 ft 362 kts 265°
2026-05-04 03:11 32.86992 -115.13875 33793 ft 360 kts 265°
2026-05-04 03:11 32.86846 -115.19814 33486 ft 363 kts 265°
2026-05-04 03:11 32.86772 -115.22798 32907 ft 355 kts 265°
2026-05-04 03:12 32.86700 -115.25709 32218 ft 347 kts 266°
2026-05-04 03:12 32.86628 -115.28570 31457 ft 343 kts 266°
2026-05-04 03:12 32.86556 -115.31388 30719 ft 338 kts 266°
2026-05-04 03:12 32.86475 -115.34135 30006 ft 336 kts 264°
2026-05-04 03:13 32.86188 -115.36902 29090 ft 337 kts 260°
2026-05-04 03:13 32.85768 -115.39668 28219 ft 345 kts 259°
2026-05-04 03:13 32.85326 -115.42549 27312 ft 363 kts 259°
2026-05-04 03:13 32.84884 -115.45563 26494 ft 374 kts 259°
2026-05-04 03:14 32.84443 -115.48671 25791 ft 386 kts 259°
2026-05-04 03:14 32.83969 -115.51798 25314 ft 382 kts 258°
2026-05-04 03:14 32.83469 -115.54864 24852 ft 379 kts 258°
2026-05-04 03:14 32.82957 -115.57936 24372 ft 377 kts 258°
2026-05-04 03:15 32.82447 -115.60997 23905 ft 376 kts 258°
2026-05-04 03:15 32.81946 -115.64019 23477 ft 376 kts 258°
2026-05-04 03:15 32.81440 -115.67084 22953 ft 376 kts 257°
2026-05-04 03:15 32.80939 -115.70127 22456 ft 374 kts 257°
2026-05-04 03:16 32.80439 -115.73162 21977 ft 373 kts 257°
2026-05-04 03:16 32.79941 -115.76187 21510 ft 371 kts 257°
2026-05-04 03:16 32.79452 -115.79159 21057 ft 370 kts 257°
2026-05-04 03:16 32.78957 -115.82148 20606 ft 368 kts 257°
2026-05-04 03:17 32.78470 -115.85141 20162 ft 368 kts 258°
2026-05-04 03:17 32.78142 -115.88167 19708 ft 368 kts 262°
2026-05-04 03:17 32.77928 -115.91194 19274 ft 368 kts 263°
2026-05-04 03:17 32.77739 -115.94231 18814 ft 368 kts 263°
2026-05-04 03:18 32.77546 -115.97264 18355 ft 369 kts 263°
2026-05-04 03:18 32.77340 -116.00311 17862 ft 372 kts 263°
2026-05-04 03:18 32.77124 -116.03343 17400 ft 370 kts 263°
2026-05-04 03:18 32.76900 -116.06382 16912 ft 366 kts 263°
2026-05-04 03:19 32.76675 -116.09389 16446 ft 364 kts 263°
2026-05-04 03:19 32.76447 -116.12398 15993 ft 366 kts 263°
2026-05-04 03:19 32.76221 -116.15358 15573 ft 359 kts 263°
2026-05-04 03:19 32.76000 -116.18264 15124 ft 346 kts 263°
2026-05-04 03:20 32.75786 -116.21056 14717 ft 333 kts 263°
2026-05-04 03:20 32.75579 -116.23757 14308 ft 324 kts 263°
2026-05-04 03:20 32.75376 -116.26384 13956 ft 315 kts 263°
2026-05-04 03:20 32.75180 -116.28930 13526 ft 305 kts 263°
2026-05-04 03:21 32.74989 -116.31401 13127 ft 295 kts 263°
2026-05-04 03:21 32.74803 -116.33790 12742 ft 285 kts 262°
2026-05-04 03:21 32.74624 -116.36098 12402 ft 276 kts 262°
2026-05-04 03:21 32.74452 -116.38305 12070 ft 268 kts 262°
2026-05-04 03:22 32.74282 -116.40484 11775 ft 262 kts 262°
2026-05-04 03:22 32.74114 -116.42631 11449 ft 260 kts 262°
2026-05-04 03:22 32.73946 -116.44771 11143 ft 262 kts 262°
2026-05-04 03:22 32.73774 -116.46952 10838 ft 267 kts 261°
2026-05-04 03:23 32.73598 -116.49170 10465 ft 270 kts 261°
2026-05-04 03:23 32.73415 -116.51349 10171 ft 268 kts 261°
2026-05-04 03:23 32.73205 -116.53539 10015 ft 263 kts 260°
2026-05-04 03:23 32.72997 -116.55667 9930 ft 255 kts 260°
2026-05-04 03:24 32.72792 -116.57759 9710 ft 258 kts 260°
2026-05-04 03:24 32.72584 -116.59883 9439 ft 258 kts 261°
2026-05-04 03:24 32.72380 -116.61979 8924 ft 259 kts 261°
2026-05-04 03:24 32.72172 -116.64109 8425 ft 259 kts 261°
2026-05-04 03:25 32.71969 -116.66244 8000 ft 260 kts 262°
2026-05-04 03:25 32.71803 -116.68387 7679 ft 261 kts 263°
2026-05-04 03:25 32.71637 -116.70524 7388 ft 260 kts 263°
2026-05-04 03:25 32.71463 -116.72648 7120 ft 256 kts 264°
2026-05-04 03:26 32.71301 -116.74753 6857 ft 254 kts 263°
2026-05-04 03:26 32.71144 -116.76778 6600 ft 245 kts 264°
2026-05-04 03:26 32.70989 -116.78788 6357 ft 241 kts 263°
2026-05-04 03:26 32.70832 -116.80772 6102 ft 241 kts 264°
2026-05-04 03:27 32.70543 -116.82710 5995 ft 237 kts 251°
2026-05-04 03:27 32.69942 -116.84549 6008 ft 241 kts 249°
2026-05-04 03:27 32.69342 -116.86400 5997 ft 245 kts 250°
2026-05-04 03:27 32.68739 -116.88297 5987 ft 246 kts 250°
2026-05-04 03:28 32.68161 -116.90207 5881 ft 244 kts 251°
2026-05-04 03:28 32.67613 -116.92062 5793 ft 231 kts 251°
2026-05-04 03:28 32.67345 -116.93875 5658 ft 218 kts 274°
2026-05-04 03:28 32.67599 -116.95662 5153 ft 224 kts 283°
2026-05-04 03:29 32.68048 -116.97428 4678 ft 228 kts 287°
2026-05-04 03:29 32.68542 -116.99259 4052 ft 238 kts 286°
2026-05-04 03:29 32.69023 -117.01147 3619 ft 234 kts 285°
2026-05-04 03:29 32.69480 -117.03011 2976 ft 230 kts 285°
2026-05-04 03:30 32.69907 -117.04762 2615 ft 212 kts 285°
2026-05-04 03:30 32.70296 -117.06358 2331 ft 195 kts 285°
2026-05-04 03:30 32.70658 -117.07840 2030 ft 179 kts 285°
2026-05-04 03:30 32.70987 -117.09196 1789 ft 161 kts 285°
2026-05-04 03:31 32.71282 -117.10407 1513 ft 145 kts 286°
2026-05-04 03:31 32.71550 -117.11502 1363 ft 133 kts 285°
2026-05-04 03:31 32.71799 -117.12550 1113 ft 128 kts 285°
2026-05-04 03:31 32.72048 -117.13568 936 ft 130 kts 283°
2026-05-04 03:32 32.72306 -117.14588 718 ft 127 kts 283°
2026-05-04 03:32 32.72551 -117.15587 549 ft 125 kts 281°
2026-05-04 03:32 32.72787 -117.16594 368 ft 128 kts 282°
2026-05-04 03:32 32.73035 -117.17632 119 ft 130 kts 283°
2026-05-04 03:33 32.73273 -117.18623 28 ft 123 kts 284°
2026-05-04 03:33 32.73472 -117.19449 27 ft 64 kts 286°
2026-05-04 03:33 32.73533 -117.19710 29 ft 13 kts 275°
2026-05-04 03:33 32.73516 -117.19814 28 ft 11 kts 249°
2026-05-04 03:34 32.73493 -117.19892 27 ft 11 kts 252°
2026-05-04 03:34 32.73498 -117.19978 26 ft 12 kts 284°
2026-05-04 03:34 32.73523 -117.20082 26 ft 14 kts 285°
2026-05-04 03:34 32.73546 -117.20176 25 ft 7 kts 285°
2026-05-04 03:35 32.73518 -117.20234 26 ft 10 kts 202°
2026-05-04 03:35 32.73452 -117.20257 22 ft 10 kts 197°
2026-05-04 03:35 32.73433 -117.20264 21 ft 1 kts 197°
2026-05-04 03:35 32.73432 -117.20264 21 ft 1 kts 197°
2026-05-04 03:36 32.73415 -117.20286 21 ft 5 kts 248°
2026-05-04 03:36 32.73419 -117.20322 21 ft 0 kts 268°
2026-05-04 03:36 32.73418 -117.20328 21 ft 0 kts 265°